KUIPER-00253

导读

KUIPER-00253(NORAD编号68584)是亚马逊Amazon Leo(原Project Kuiper)低轨卫星互联网星座的一颗卫星。该星座计划一期部署3236颗卫星,旨在为全球网络覆盖不足地区提供高速低延迟互联网服务。 KUIPER-00253属于2025年9月ULA第五次发射的27颗卫星之一,发射后先部署于465公里轨道,随后将爬升进入600公里左右的预定工作轨道,属于星座组网过程中的一颗量产通信卫星,助力亚马逊完成FCC要求2026年7月前部署一半卫星的进度目标。

Basic Information
目录编号:
68584
目录名称:
KUIPER-00253
国际标识:
2026-072M
轨道中心:
EARTH
卫星名称:
KUIPER-00253
卫星全名:
KUIPER-00253
卫星状态:
在轨 (已飞行70 天)
发射日期:
2026-04-04 UTC
国别 :
美国 (US)
星等 :
--
Orbit Information
数据来源 国际轨道数据
星历时间: 2026-06-13T04:00:02+0800
5小时前
查看轨道信息
半长轴: 6984.032km
偏心率: 0.0008717
轨道倾角: 51.898°
近地点辐角 41.397°
升交点赤经 202.588°
平近点角 333.440°
近地点: 599.807km
远地点: 611.983km
周期: 96.810分钟
每日圈数: 14.874539
Detailed Information
使用方式:
暂无
2D Orbit Map
3D Orbit Map
Orbit Altitude Analysis Chart
Orbit Inclination Analysis Chart
Orbit Comprehensive Analysis Chart
View Comprehensive Chart